Home   Weather   Affoltern am Albis   Past weeks

Flag for Switzerland Past Weather in Affoltern am Albis, Zurich, Switzerland — Yesterday and Last 2 Weeks

Now
22 °F

Cold.


Feels Like: 17 °F
Forecast: 20 / 33 °F
Wind: 3 mph from Northeast

Location: Zuerich-Fluntern

Current Time: Jan 21, 2017 at 6:37:50 pm

Latest Report: Jan 21, 2017 at 5:00 pm


Visibility: N/A

Pressure: 30.42 "Hg

Humidity: 91%

Dew Point: 20 °F

Location of Affoltern am AlbisLocation

Past Weather in Affoltern am Albis — Graph

°F

Affoltern am Albis Temperature Yesterday

Maximum temperature yesterday: 22 °F (at 12:00 pm)
Minimum temperature yesterday: 20 °F (at 9:00 pm)
Average temperature yesterday: 21 °F

High & Low Weather Summary for the Past Weeks

 TemperatureHumidityPressure
High41 °F (Jan 12, 2:00 pm)100% (Jan 7, 6:00 am)30.73 "Hg (Jan 7, 6:00 am)
Low10 °F (Jan 7, 4:00 am)65% (Jan 13, 12:00 pm)29.55 "Hg (Jan 13, 12:00 am)
Average27 °F85%30.28 "Hg
* Reported Jan 6 5:00 pm — Jan 21 5:00 pm, Affoltern am Albis, Weather by CustomWeather, © 2017

Note: Actual official high and low records may vary slightly from our data, if they occured in-between our weather recording intervals... More about our weather records

Advertising

Affoltern am Albis Weather History for the Previous 24 Hours

Scroll right to see more
 ConditionsComfort  
Time TempWeatherWind HumidityBarometerVisibility
5:00 pm
Sat, Jan 21
22 °FCold.3 mph91%30.42 "HgN/A
4:00 pm23 °FCold.2 mph89%30.43 "HgN/A
3:00 pm23 °FCold.2 mph87%30.43 "HgN/A
2:00 pm23 °FCold.2 mph87%30.44 "HgN/A
1:00 pm22 °FOvercast.2 mph91%30.47 "HgN/A
12:00 pm22 °FCold.3 mph92%30.49 "HgN/A
11:00 am21 °FCold.2 mph93%30.50 "HgN/A
10:00 am20 °FCold.2 mph93%30.50 "HgN/A
9:00 am20 °FCold.2 mph92%30.50 "HgN/A
8:00 am20 °FCold.2 mph93%30.50 "HgN/A
7:00 am19 °FCold.1 mph94%30.50 "HgN/A
6:00 am19 °FCold.2 mph94%30.50 "HgN/A
5:00 am19 °FCold.1 mph93%30.50 "HgN/A
4:00 am19 °FCold.3 mph93%30.51 "HgN/A
3:00 am19 °FCold.3 mph92%30.52 "HgN/A
2:00 am19 °FCold.5 mph91%30.52 "HgN/A
1:00 am19 °FCold.5 mph93%30.53 "HgN/A
12:00 am20 °FCold.3 mph90%30.54 "HgN/A
11:00 pm
Fri, Jan 20
20 °FCold.5 mph89%30.53 "HgN/A
10:00 pm20 °FCold.3 mph89%30.53 "HgN/A
9:00 pm20 °FCold.5 mph89%30.53 "HgN/A
8:00 pm20 °FCold.5 mph88%30.53 "HgN/A
7:00 pm20 °FOvercast.5 mph87%30.52 "HgN/A
6:00 pm21 °FCold.5 mph86%30.52 "HgN/A
Weather by CustomWeather, © 2017

See weather overviewHow to use our weather pages